Regional Weather Roundup
Issued by NWS

Home | Current Version | Previous Version | Text Only | Print | Product List | Glossary Off
Versions: 1 2 3 4 5 6 7 8 9 10 11 12 13 14 15 16 17 18 19 20 21 22 23 24 25 26 27 28 29 30 31 32 33 34 35 36 37 38 39 40 41 42 43 44 45 46 47 48 49 50

000
ASUS43 KLMK 250502
RWRKY
KENTUCKY REGIONAL WEATHER ROUNDUP
NATIONAL WEATHER SERVICE LOUISVILLE KY
100 AM EDT THU AUG 25 2016

NOTE "FAIR" INDICATES FEW OR NO CLOUDS BELOW 12,000 FEET
WITH NO SIGNIFICANT WEATHER AND/OR OBSTRUCTIONS TO VISIBILITY.

KYZ001>023-026-027-061>063-070>075-250600-
WESTERN AND SOUTH CENTRAL KENTUCKY

CITY           SKY/WX    TMP DP  RH WIND       PRES   REMARKS
PADUCAH        CLEAR     79  73  82 SW6       30.05F
HENDERSON      CLEAR     75  72  88 SW3       30.05S
OWENSBORO      CLEAR     78  76  94 S7        30.07F
HOPKINSVILLE   CLEAR     79  74  84 S5        30.09F
BOWLING GREEN  CLEAR     79  73  82 S6        30.10F
GLASGOW        CLEAR     76  74  94 CALM      30.12S
$$

KYZ024-025-028>034-038-045-046-053-250600-
NORTH CENTRAL KENTUCKY

CITY           SKY/WX    TMP DP  RH WIND       PRES   REMARKS
LOUISVILLE/SDF PTCLDY    83  73  72 SW9       30.07S
LOUISVILLE/LOU CLEAR     81  73  76 S5        30.08S
FORT KNOX      CLEAR     76  73  90 S6        30.08S
$$

KYZ035>037-039>044-047>052-055>060-089>105-250600-
NORTHEAST KENTUCKY

CITY           SKY/WX    TMP DP  RH WIND       PRES   REMARKS
LEXINGTON      CLEAR     77  70  79 SW8       30.12R
COVINGTON      NOT AVBL
FRANKFORT      CLEAR     78  71  79 SW7       30.09S
$$

KYZ054-064>069-076>088-106>120-250600-
SOUTHEAST KENTUCKY

CITY           SKY/WX    TMP DP  RH WIND       PRES   REMARKS
JACKSON        MOCLDY    75  70  84 CALM      30.15F
LONDON         CLEAR     72  69  90 CALM      30.15F
SOMERSET       CLEAR     73  72  94 S3        30.15S
MIDDLESBORO    CLEAR     70  70 100 CALM      30.18F
MONTICELLO     CLEAR    N/A N/A N/A W9        30.16F
$$





USA.gov is the U.S. government's official web portal to all federal, state and local government web resources and services.